Location: Kapla
(46.2483°N, 15.0094°E)
Time: 16:02:29
(UTC+00:00)

Sich 1 - Pass Details

Date: 03 March 2021
Orbit: 593 x 626 km, 82.5° (Epoch: 17 April)

Event Time Altitude Azimuth Distance (km) Brightness Sun altitude
Rises 17:27:30 0° 199° (SSW) 2,873 6.8 -7.4°
Reaches altitude 10° 17:29:44 10° 204° (SSW) 1,978 6.0 -7.8°
Maximum altitude 17:34:02 54° 282° (WNW) 762 4.0 -8.6°
Drops below altitude 10° 17:38:24 10° 0° (N) 2,008 5.7 -9.3°
Sets 17:40:42 0° 5° (N) 2,922 6.5 -9.7°
